• In Russia
  • List of Countries
  • For 7 days
  • Water Temperature
  • Satellite Maps
  • Weather Map
  • Weather Widgets
  • user-avatar
    Login

    Hourly Weather Naftalan

    Today, 27 July, Thursday

    Time Temperature Precipitation Wind Pressure Humidity
    00:00 +28°C° 0 mm 2 mps 758 mmHg 52%
    01:00 +28°C° 0 mm 2 mps 758 mmHg 52%
    02:00 +28°C° 0 mm 2 mps 758 mmHg 52%
    03:00 +28°C° 0 mm 2 mps 758 mmHg 50%
    04:00 +28°C° 0 mm 2 mps 758 mmHg 48%
    05:00 +29°C° 0 mm 2 mps 758 mmHg 47%
    06:00 +29°C° 0 mm 2 mps 759 mmHg 45%
    07:00 +31°C° 0 mm 2 mps 759 mmHg 40%
    08:00 +34°C° 0 mm 2 mps 759 mmHg 35%
    09:00 +36°C° 0 mm 2 mps 759 mmHg 32%
    10:00 +37°C° 0 mm 3 mps 759 mmHg 30%
    11:00 +38°C° 0 mm 3 mps 758 mmHg 27%
    12:00 +39°C° 0 mm 3 mps 758 mmHg 25%
    13:00 +40°C° 0 mm 4 mps 758 mmHg 24%
    14:00 +40°C° 0 mm 4 mps 758 mmHg 24%
    15:00 +40°C° 0 mm 4 mps 758 mmHg 24%
    16:00 +38°C° 0 mm 4 mps 758 mmHg 26%
    17:00 +37°C° 0 mm 4 mps 758 mmHg 28%
    18:00 +36°C° 0 mm 4 mps 758 mmHg 30%
    19:00 +34°C° 0 mm 4 mps 758 mmHg 35%
    20:00 +31°C° 0 mm 3 mps 759 mmHg 40%
    21:00 +30°C° 0 mm 3 mps 759 mmHg 45%
    22:00 +30°C° 0 mm 3 mps 759 mmHg 46%
    23:00 +29°C° 0 mm 3 mps 759 mmHg 47%

    Tomorrow, 28 July, Friday

    Time Temperature Precipitation Wind Pressure Humidity
    00:00 +29°C° 0 mm 2 mps 759 mmHg 48%
    01:00 +28°C° 0 mm 2 mps 759 mmHg 49%
    02:00 +28°C° 0 mm 1 mps 758 mmHg 49%
    03:00 +28°C° 0 mm 1 mps 758 mmHg 50%
    04:00 +29°C° 0 mm 1 mps 758 mmHg 48%
    05:00 +29°C° 0 mm 1 mps 759 mmHg 46%
    06:00 +30°C° 0 mm 1 mps 759 mmHg 45%
    07:00 +32°C° 0 mm 1 mps 759 mmHg 39%
    08:00 +35°C° 0 mm 2 mps 759 mmHg 34%
    09:00 +37°C° 0 mm 2 mps 758 mmHg 28%
    10:00 +38°C° 0 mm 3 mps 758 mmHg 26%
    11:00 +40°C° 0 mm 4 mps 758 mmHg 24%
    12:00 +42°C° 0 mm 4 mps 757 mmHg 22%
    13:00 +42°C° 0 mm 5 mps 757 mmHg 23%
    14:00 +41°C° 0 mm 5 mps 757 mmHg 23%
    15:00 +41°C° 0 mm 5 mps 756 mmHg 23%
    16:00 +40°C° 0 mm 5 mps 756 mmHg 28%
    17:00 +37°C° 0 mm 5 mps 756 mmHg 33%
    18:00 +35°C° 0 mm 5 mps 756 mmHg 38%
    19:00 +34°C° 0 mm 5 mps 756 mmHg 45%
    20:00 +32°C° 0 mm 4 mps 756 mmHg 53%
    21:00 +30°C° 0 mm 4 mps 757 mmHg 61%
    22:00 +29°C° 0 mm 3 mps 757 mmHg 64%
    23:00 +29°C° 0 mm 3 mps 757 mmHg 67%

    Day after tomorrow, 29 July, Saturday

    Time Temperature Precipitation Wind Pressure Humidity
    00:00 +29°C° 0 mm 2 mps 756 mmHg 70%
    01:00 +28°C° 0 mm 2 mps 756 mmHg 71%
    02:00 +28°C° 0 mm 2 mps 756 mmHg 72%
    03:00 +28°C° 0 mm 1 mps 756 mmHg 73%
    04:00 +28°C° 0 mm 1 mps 756 mmHg 71%
    05:00 +29°C° 0 mm 1 mps 757 mmHg 68%
    06:00 +30°C° 0 mm 1 mps 757 mmHg 66%
    07:00 +31°C° 0 mm 1 mps 757 mmHg 58%
    08:00 +33°C° 0 mm 1 mps 757 mmHg 50%
    09:00 +35°C° 0 mm 1 mps 757 mmHg 42%
    10:00 +38°C° 0 mm 2 mps 757 mmHg 38%
    11:00 +39°C° 0 mm 2 mps 756 mmHg 34%
    12:00 +42°C° 0 mm 3 mps 756 mmHg 29%
    13:00 +42°C° 0 mm 3 mps 756 mmHg 29%
    14:00 +43°C° 0 mm 4 mps 755 mmHg 28%
    15:00 +43°C° 0 mm 5 mps 755 mmHg 28%
    16:00 +41°C° 0 mm 5 mps 755 mmHg 31%
    17:00 +40°C° 0 mm 5 mps 755 mmHg 35%
    18:00 +37°C° 0 mm 5 mps 755 mmHg 38%
    19:00 +35°C° 0 mm 4 mps 755 mmHg 45%
    20:00 +34°C° 0 mm 3 mps 756 mmHg 51%
    21:00 +31°C° 0 mm 2 mps 756 mmHg 58%
    22:00 +31°C° 0 mm 2 mps 756 mmHg 58%
    23:00 +31°C° 0 mm 2 mps 757 mmHg 58%

    30 July, Sunday

    Time Temperature Precipitation Wind Pressure Humidity
    00:00 +30°C° 0 mm 1 mps 757 mmHg 59%
    01:00 +30°C° 0 mm 2 mps 757 mmHg 57%
    02:00 +30°C° 0 mm 3 mps 758 mmHg 56%
    03:00 +30°C° 0 mm 3 mps 758 mmHg 54%
    04:00 +30°C° 0 mm 4 mps 759 mmHg 54%
    05:00 +32°C° 0 mm 4 mps 759 mmHg 53%
    06:00 +32°C° 0 mm 5 mps 760 mmHg 52%
    07:00 +34°C° 0 mm 5 mps 760 mmHg 46%
    08:00 +36°C° 0 mm 5 mps 760 mmHg 41%
    09:00 +38°C° 0 mm 6 mps 760 mmHg 35%
    10:00 +40°C° 0 mm 7 mps 760 mmHg 32%
    11:00 +41°C° 0 mm 8 mps 760 mmHg 30%
    12:00 +43°C° 0 mm 8 mps 760 mmHg 28%
    13:00 +43°C° 0 mm 9 mps 760 mmHg 29%
    14:00 +42°C° 0 mm 10 mps 760 mmHg 30%
    15:00 +42°C° 0 mm 11 mps 760 mmHg 31%
    16:00 +39°C° 0 mm 10 mps 760 mmHg 35%
    17:00 +37°C° 0 mm 9 mps 760 mmHg 40%
    18:00 +34°C° 0 mm 9 mps 760 mmHg 44%
    19:00 +33°C° 0 mm 8 mps 760 mmHg 47%
    20:00 +32°C° 0 mm 6 mps 761 mmHg 51%
    21:00 +30°C° 0 mm 5 mps 761 mmHg 54%
    22:00 +30°C° 0 mm 5 mps 761 mmHg 55%
    23:00 +30°C° 0 mm 5 mps 761 mmHg 55%

    31 July, Monday

    Time Temperature Precipitation Wind Pressure Humidity
    00:00 +30°C° 0 mm 4 mps 762 mmHg 56%
    01:00 +30°C° 0 mm 4 mps 762 mmHg 56%
    02:00 +30°C° 0 mm 4 mps 762 mmHg 55%
    03:00 +30°C° 0 mm 4 mps 762 mmHg 55%
    04:00 +30°C° 0 mm 3 mps 762 mmHg 54%
    05:00 +30°C° 0 mm 3 mps 762 mmHg 53%
    06:00 +30°C° 0 mm 3 mps 763 mmHg 53%
    07:00 +31°C° 0 mm 3 mps 763 mmHg 46%
    08:00 +34°C° 0 mm 3 mps 763 mmHg 40%
    09:00 +35°C° 0 mm 3 mps 763 mmHg 33%
    10:00 +36°C° 0 mm 4 mps 763 mmHg 31%
    11:00 +37°C° 0 mm 4 mps 763 mmHg 29%
    12:00 +38°C° 0 mm 4 mps 762 mmHg 27%
    13:00 +39°C° 0 mm 5 mps 762 mmHg 28%
    14:00 +39°C° 0 mm 5 mps 762 mmHg 29%
    15:00 +39°C° 0 mm 6 mps 761 mmHg 29%
    16:00 +37°C° 0 mm 5 mps 761 mmHg 32%
    17:00 +36°C° 0 mm 5 mps 762 mmHg 34%
    18:00 +35°C° 0 mm 5 mps 762 mmHg 36%
    19:00 +33°C° 0 mm 4 mps 762 mmHg 41%
    20:00 +32°C° 0 mm 4 mps 763 mmHg 46%
    21:00 +30°C° 0 mm 3 mps 763 mmHg 51%
    22:00 +29°C° 0 mm 3 mps 763 mmHg 53%
    23:00 +29°C° 0 mm 3 mps 763 mmHg 55%

    1 August, Tuesday

    Time Temperature Precipitation Wind Pressure Humidity
    00:00 +28°C° 0 mm 3 mps 763 mmHg 56%
    01:00 +28°C° 0 mm 3 mps 763 mmHg 58%
    02:00 +28°C° 0 mm 3 mps 763 mmHg 59%
    03:00 +27°C° 0 mm 3 mps 763 mmHg 61%
    04:00 +28°C° 0 mm 3 mps 764 mmHg 59%
    05:00 +28°C° 0 mm 3 mps 764 mmHg 58%
    06:00 +29°C° 0 mm 3 mps 764 mmHg 57%
    07:00 +31°C° 0 mm 3 mps 765 mmHg 49%
    08:00 +34°C° 0 mm 4 mps 765 mmHg 42%
    09:00 +36°C° 0 mm 4 mps 765 mmHg 34%
    10:00 +37°C° 0 mm 5 mps 764 mmHg 32%
    11:00 +39°C° 0 mm 5 mps 764 mmHg 29%
    12:00 +40°C° 0 mm 6 mps 764 mmHg 27%
    13:00 +39°C° 0 mm 6 mps 764 mmHg 28%
    14:00 +39°C° 0 mm 6 mps 763 mmHg 28%
    15:00 +39°C° 0 mm 6 mps 763 mmHg 29%
    16:00 +36°C° 0 mm 6 mps 763 mmHg 33%
    17:00 +35°C° 0 mm 5 mps 763 mmHg 36%
    18:00 +34°C° 0 mm 5 mps 763 mmHg 40%
    19:00 +33°C° 0 mm 4 mps 764 mmHg 47%
    20:00 +30°C° 0 mm 4 mps 764 mmHg 53%
    21:00 +29°C° 0 mm 3 mps 765 mmHg 60%
    22:00 +29°C° 0 mm 3 mps 765 mmHg 62%
    23:00 +28°C° 0 mm 2 mps 765 mmHg 64%
    Show more